Tracking 35331 objects as of 15-Sep-2026
HD Live streaming from Space Station
objects crossing your sky now

STARLINK-31369

Track STARLINK-31369 now!
10-day predictions
STARLINK-31369 is classified as:


NORAD ID: 58975
Int'l Code: 2024-031L
Launch date: February 15, 2023
Source: United States (US)
Launch site: AIR FORCE WESTERN TEST RANGE (AFWTR)
Your satellite tracking list
Your tracking list is empty




NASA's NSSDC Master Catalog

Two Line Element Set (TLE):
1 58975U 24031L   26257.96037829 -.00000645  00000-0 -79383-5 0  9992
2 58975  53.1603 135.2637 0001426  94.5903 265.5263 15.34395629145527
Source of the keplerian elements: AFSPC